Location: St. Louis
(38.6270°N, 90.1994°W)
Time: 07:52:35
(UTC-06:00)

Transit 2A Rocket - Pass Details

Date: 07 December 2021
Orbit: 584 x 917 km, 66.7° (Epoch: 23 January)

Event Time Altitude Azimuth Distance (km) Brightness Sun altitude
Rises 06:32:39 0° 207° (SSW) 3,266 8.2 -6.6°
Reaches altitude 10° 06:34:58 10° 208° (SSW) 2,388 7.5 -6.2°
Maximum altitude 06:40:33 88° 299° (WNW) 865 5.3 -5.2°
Drops below altitude 10° 06:46:35 10° 28° (NNE) 2,579 7.8 -4.1°
Sets 06:49:10 0° 29° (NNE) 3,544 8.5 -3.7°
